Location: Woodstock
(35.2731°N, 89.9823°W)
Time: 14:00:06
(UTC+00:00)

Vanguard 3 - All Passes

Search period start: 21 May 2025 00:00
Search period end: 31 May 2025 00:00
Orbit: 508 x 3216 km, 33.3° (Epoch: 21 May)

Date Brightness Start Highest point End Pass type
(mag) Time Alt. Az. Time Alt. Az. Time Alt. Az.
21 May - 07:41:55 10° SSW 07:50:13 27° SSE 07:55:37 10° ESE visible
21 May - 09:54:47 10° WSW 10:01:54 55° S 10:06:19 10° E visible
21 May - 12:08:03 10° W 12:12:47 67° S 12:16:28 10° ESE daylight
21 May - 14:20:05 10° W 14:23:12 26° SSW 14:26:32 10° SE daylight
22 May - 06:21:12 10° SSW 06:29:15 20° SSE 06:35:02 10° ESE visible
22 May - 08:32:49 10° SW 08:41:42 43° SSE 08:47:00 10° E visible
22 May - 10:46:42 10° W 10:53:02 70° S 10:57:08 10° E daylight
22 May - 12:59:37 10° W 13:03:42 46° SSW 13:07:13 10° ESE daylight
22 May - 15:12:40 10° SW 15:14:04 12° SSW 15:15:31 10° S daylight
23 May - 05:02:35 10° S 05:07:48 13° SSE 05:12:11 10° SE night (unlit)
23 May - 07:10:53 10° SW 07:21:01 33° SSE 07:27:18 10° E visible
23 May - 09:24:36 10° WSW 09:32:59 61° S 09:37:55 10° E visible
23 May - 11:38:36 10° W 11:44:05 68° S 11:47:55 10° ESE daylight
23 May - 13:51:18 10° W 13:54:28 24° SSW 13:57:31 10° SSE daylight
24 May - 05:49:37 10° SSW 05:59:48 24° SSE 06:06:49 10° ESE visible
24 May - 08:02:07 10° SW 08:12:34 49° SSE 08:18:35 10° E visible
24 May - 10:16:46 10° W 10:24:12 73° S 10:28:42 10° E visible
24 May - 12:30:23 10° W 12:34:58 46° SSW 12:38:33 10° ESE daylight
25 May - 04:30:02 10° S 04:38:08 16° SSE 04:44:34 10° ESE night (unlit)
25 May - 06:39:43 10° SW 06:51:38 38° SSE 06:58:52 10° E visible
25 May - 08:54:12 10° WSW 09:03:58 66° S 09:09:29 10° E visible
25 May - 11:08:55 10° W 11:15:18 69° S 11:19:25 10° ESE daylight
25 May - 13:22:18 10° W 13:25:40 23° SSW 13:28:38 10° SSE daylight
26 May - 05:18:02 10° SSW 05:30:10 28° SSE 05:38:24 10° E visible
26 May - 07:31:14 10° SW 07:43:17 54° SSE 07:50:06 10° E visible
26 May - 09:46:36 10° W 09:55:16 76° S 10:00:15 10° E visible
26 May - 12:00:55 10° W 12:06:13 46° SSW 12:09:58 10° SE daylight
27 May - 03:57:56 10° S 04:08:17 19° SSE 04:16:21 10° ESE visible
27 May - 06:08:27 10° SW 06:22:05 43° SSE 06:30:19 10° E visible
27 May - 08:23:33 10° WSW 08:34:48 70° S 08:41:00 10° E visible
27 May - 10:39:00 10° W 10:46:26 70° S 10:50:57 10° ESE daylight
27 May - 12:53:04 10° W 12:56:50 23° SSW 12:59:54 10° SSE daylight
28 May - 02:43:08 10° SSE 02:46:04 11° SE 02:48:52 10° SE visible
28 May - 04:46:29 10° SSW 05:00:21 32° SSE 05:09:46 10° E visible
28 May - 07:00:11 10° WSW 07:13:51 59° SSE 07:21:32 10° E visible
28 May - 09:16:12 10° W 09:26:13 78° S 09:31:47 10° E visible
28 May - 11:31:13 10° W 11:37:22 47° SSW 11:41:26 10° SE daylight
29 May - 03:26:05 10° S 03:38:15 22° SE 03:47:45 10° ESE visible
29 May - 05:37:06 10° SW 05:52:20 47° SSE 06:01:37 10° E visible
29 May - 07:52:42 10° WSW 08:05:29 73° S 08:12:28 10° E visible
29 May - 10:08:49 10° W 10:17:29 71° S 10:22:29 10° ESE visible
29 May - 12:23:35 10° W 12:27:57 24° SSW 12:31:16 10° SSE daylight
30 May - 02:09:28 10° SSE 02:15:56 13° SE 02:21:50 10° ESE visible
30 May - 04:14:58 10° SSW 04:30:19 36° SSE 04:40:57 10° E visible
30 May - 06:29:00 10° WSW 06:44:13 63° SSE 06:52:52 10° E visible
30 May - 08:45:33 10° W 08:57:02 79° S 09:03:17 10° E visible
30 May - 11:01:15 10° W 11:08:27 49° SSW 11:12:55 10° SE daylight
